GW6539 Weather Reports


time (UTC)temp
F
wind
direction
speed
knots
gust
knots
rain 1hr
in
rain 24hr
in
rain mn
in
humidity
%
barometer
mb
20260507125032 82 57 6.1 7.8 0.00 0.07 0.07 84 1011.5
20260507124529 81 42 5.2 7.8 0.00 0.07 0.07 85 1011.5
20260507124026 81 39 6.1 7.8 0.00 0.07 0.07 85 1011.5
20260507123525 81 48 5.2 5.2 0.00 0.07 0.07 85 1011.5
20260507123021 81 51 5.2 7.0 0.00 0.07 0.07 85 1011.5
20260507122516 81 51 7.0 8.7 0.00 0.07 0.07 85 1011.5
20260507122012 81 46 6.1 7.8 0.00 0.07 0.07 85 1011.1
20260507121508 81 45 5.2 7.0 0.00 0.07 0.07 85 1011.1
20260507121004 81 47 4.3 7.8 0.00 0.07 0.07 85 1011.1
20260507120500 81 49 7.0 9.6 0.00 0.07 0.07 85 1011.1
20260507115957 81 52 7.8 12.2 0.00 0.07 0.07 85 1011.1
20260507115454 82 56 7.0 7.8 0.00 0.07 0.07 85 1011.1
20260507114949 82 56 9.6 11.3 0.00 0.07 0.07 85 1011.1
20260507114446 82 46 7.8 8.7 0.00 0.07 0.07 84 1011.1
20260507113943 82 50 8.7 13.9 0.00 0.07 0.07 85 1011.1
20260507113440 82 42 7.0 9.6 0.00 0.07 0.07 85 1011.1
20260507112937 82 26 5.2 6.1 0.00 0.07 0.07 85 1011.1
20260507112435 81 40 5.2 7.8 0.00 0.07 0.07 85 1011.1
20260507111931 81 33 5.2 6.1 0.00 0.07 0.07 85 1011.1
20260507111429 81 37 5.2 7.0 0.00 0.07 0.07 85 1011.1
20260507110925 82 30 5.2 6.1 0.00 0.07 0.07 85 1011.1
20260507110421 81 42 5.2 6.1 0.00 0.07 0.07 85 1010.8
20260507105918 81 27 7.0 9.6 0.00 0.07 0.07 86 1010.8
20260507105415 81 40 6.1 7.8 0.00 0.07 0.07 87 1011.1
20260507104912 81 58 4.3 5.2 0.00 0.07 0.07 87 1011.1
20260507104408 81 52 5.2 7.8 0.00 0.07 0.07 88 1011.1
20260507103904 81 58 5.2 6.1 0.00 0.07 0.07 88 1010.8
20260507103401 81 57 7.0 8.7 0.47 0.03 0.03 86 1010.8
20260507102857 82 73 8.7 11.3 0.00 0.02 0.02 84 1010.8
20260507102354 82 63 7.8 9.6 0.00 0.02 0.02 82 1010.8
20260507101850 83 48 7.0 10.4 0.00 0.02 0.02 81 1010.8
20260507101350 83 47 8.7 11.3 0.00 0.02 0.02 82 1010.5
20260507100848 83 35 5.2 7.0 0.00 0.02 0.02 82 1010.5
20260507100346 83 45 4.3 6.1 0.00 0.02 0.02 81 1010.5
20260507095843 82 36 5.2 7.0 0.00 0.02 0.02 81 1010.5
20260507095340 82 22 5.2 7.8 0.00 0.02 0.02 81 1010.5
20260507094837 82 37 6.1 7.8 0.00 0.02 0.02 82 1010.5
20260507094333 83 42 7.0 8.7 0.00 0.02 0.02 81 1010.5
20260507093831 82 53 8.7 10.4 0.00 0.02 0.02 82 1010.5
20260507093329 82 40 5.2 7.8 0.00 0.02 0.02 82 1010.5
20260507092826 82 44 6.1 7.8 0.00 0.02 0.02 82 1010.5
20260507092323 82 52 6.1 7.8 0.00 0.02 0.02 82 1010.1
20260507091819 82 53 7.0 9.6 0.00 0.02 0.02 82 1010.5
20260507091316 82 49 5.2 7.8 0.00 0.02 0.02 82 1010.5
20260507090811 82 54 6.1 7.8 0.00 0.02 0.02 82 1010.1
20260507090308 82 47 5.2 7.0 0.00 0.02 0.02 82 1010.5
20260507085805 82 30 5.2 7.8 0.00 0.02 0.02 82 1010.1
20260507085305 82 50 5.2 7.0 0.00 0.02 0.02 82 1010.1
20260507084759 82 41 4.3 5.2 0.00 0.02 0.02 82 1010.1
20260507084255 82 55 5.2 6.1 0.00 0.02 0.02 81 1010.1
20260507083753 82 77 5.2 10.4 0.00 0.02 0.02 81 1009.8
20260507083249 83 73 7.0 9.6 0.00 0.02 0.02 80 1009.8
20260507082745 83 59 9.6 11.3 0.00 0.02 0.02 79 1009.8
20260507082241 84 62 13.0 16.5 0.00 0.02 0.02 77 1009.8
20260507081738 84 66 9.6 13.0 0.00 0.02 0.02 79 1009.4
20260507081234 84 61 9.6 13.0 0.00 0.02 0.02 79 1009.4
20260507080731 84 64 9.6 12.2 0.00 0.02 0.02 78 1009.4
20260507080227 84 39 10.4 13.9 0.00 0.02 0.02 78 1009.4
20260507075723 84 54 11.3 14.8 0.00 0.02 0.02 78 1009.4
20260507075219 85 40 7.8 9.6 0.00 0.02 0.02 79 1009.4
20260507074715 84 54 10.4 12.2 0.00 0.02 0.02 79 1009.4
20260507074214 85 54 11.3 13.9 0.00 0.02 0.02 79 1009.4
20260507073710 85 45 7.8 12.2 0.00 0.02 0.02 78 1009.4
20260507073206 85 61 7.0 7.8 0.00 0.02 0.02 78 1009.4
20260507072705 84 60 7.8 11.3 0.00 0.02 0.02 78 1009.4
20260507072201 84 69 10.4 11.3 0.00 0.02 0.02 78 1009.4
20260507071659 84 58 8.7 11.3 0.00 0.02 0.02 77 1009.4
20260507071155 84 62 10.4 13.0 0.00 0.02 0.02 76 1009.4
20260507070652 85 56 11.3 13.9 0.00 0.02 0.02 74 1009.1
20260507070149 86 58 10.4 14.8 0.00 0.02 0.02 73 1009.1
20260507065645 86 65 10.4 13.0 0.00 0.02 0.02 73 1009.1
20260507065142 86 56 14.8 18.2 0.00 0.02 0.02 72 1009.1
20260507064640 86 64 13.0 17.4 0.00 0.02 0.02 72 1009.1
20260507064138 86 53 11.3 14.8 0.00 0.02 0.02 73 1009.1
20260507063636 86 52 11.3 18.2 0.00 0.02 0.02 73 1009.1
20260507063132 86 53 13.9 16.5 0.00 0.02 0.02 73 1009.1
20260507062629 86 61 17.4 20.9 0.00 0.02 0.02 72 1009.1
20260507062127 86 52 16.5 22.6 0.00 0.02 0.02 73 1009.1
20260507061624 86 66 12.2 15.6 0.00 0.02 0.02 72 1009.1
20260507061122 86 64 14.8 18.2 0.00 0.02 0.02 72 1009.1
20260507060620 86 58 13.9 18.2 0.00 0.02 0.02 72 1009.1
20260507060116 86 61 13.9 18.2 0.00 0.02 0.02 71 1009.1
20260507055612 86 65 14.8 20.0 0.00 0.02 0.02 69 1009.1
20260507055108 86 59 16.5 22.6 0.00 0.02 0.02 70 1009.1
20260507054604 87 57 15.6 21.7 0.00 0.02 0.02 71 1009.1
20260507054101 86 49 13.9 19.1 0.00 0.02 0.02 73 1008.8
20260507053559 87 63 11.3 13.9 0.00 0.02 0.02 73 1009.1
20260507053058 87 70 15.6 20.0 0.00 0.02 0.02 71 1008.8
20260507052555 87 58 13.0 20.0 0.00 0.02 0.02 71 1008.8
20260507052051 87 58 13.0 16.5 0.00 0.02 0.02 71 1008.8
20260507051549 87 72 13.0 17.4 0.00 0.02 0.02 72 1008.8
20260507051046 87 44 14.8 18.2 0.00 0.02 0.02 70 1009.1
20260507050542 87 59 13.9 18.2 0.00 0.02 0.02 70 1009.1
20260507050039 86 59 13.9 19.1 0.00 0.02 0.02 74 1009.1
20260507045536 86 63 13.9 17.4 0.00 0.02 0.02 74 1009.1
20260507045033 86 89 11.3 16.5 0.00 0.02 0.02 73 1009.1
20260507044529 86 77 10.4 15.6 0.00 0.02 0.02 72 1009.1
20260507044026 87 75 13.0 15.6 0.00 0.02 0.02 71 1009.1
20260507043522 87 68 12.2 14.8 0.00 0.02 0.02 72 1009.1
20260507043020 87 69 14.8 19.1 0.00 0.02 0.02 72 1009.1
20260507042516 86 72 13.9 17.4 0.00 0.02 0.02 73 1009.4
20260507042011 86 86 9.6 15.6 0.00 0.02 0.02 74 1009.4
20260507041509 86 74 13.9 16.5 0.00 0.02 0.02 74 1009.4
20260507041005 86 81 9.6 13.0 0.00 0.02 0.02 73 1009.4
20260507040501 87 78 11.3 13.9 0.00 0.02 0.02 72 1009.8
20260507035957 87 62 11.3 14.8 0.00 0.02 0.02 71 1009.8
20260507035454 87 89 12.2 15.6 0.00 0.02 0.02 71 1009.8
20260507034950 87 89 11.3 13.9 0.00 0.02 0.02 71 1009.8
20260507034447 87 65 15.6 20.0 0.00 0.02 0.02 71 1009.8
20260507033945 86 69 16.5 20.0 0.00 0.02 0.02 74 1009.8
20260507033443 86 64 14.8 16.5 0.00 0.02 0.02 73 1010.1
20260507032940 87 76 13.0 17.4 0.00 0.02 0.02 72 1009.8
20260507032437 87 62 12.2 16.5 0.00 0.02 0.02 72 1010.1
20260507031933 87 97 9.6 17.4 0.00 0.02 0.02 72 1010.1
20260507031429 87 74 13.9 18.2 0.00 0.02 0.02 72 1010.1
20260507030926 86 69 14.8 18.2 0.00 0.02 0.02 71 1010.1
20260507030424 87 67 14.8 20.0 0.00 0.02 0.02 74 1010.1
20260507025921 87 92 9.6 13.0 0.00 0.02 0.02 76 1010.1
20260507025418 86 87 7.8 11.3 0.00 0.02 0.02 78 1010.5
20260507024916 86 42 11.3 15.6 0.00 0.02 0.02 78 1010.5
20260507024413 86 80 14.8 18.2 0.00 0.02 0.02 76 1010.5
20260507023908 86 67 12.2 16.5 0.00 0.02 0.02 76 1010.5
20260507023405 86 70 12.2 15.6 0.00 0.02 0.02 78 1010.5
20260507022903 85 61 9.6 13.9 0.00 0.02 0.02 79 1010.5
20260507022359 85 93 8.7 12.2 0.00 0.02 0.02 80 1010.5
20260507021855 85 71 8.7 12.2 0.00 0.02 0.02 84 1010.8
20260507021350 82 76 4.3 5.2 0.00 0.02 0.02 85 1010.8
20260507020848 81 90 6.1 7.0 0.00 0.02 0.02 85 1011.1
20260507020345 81 93 5.2 7.8 0.00 0.02 0.02 85 1011.1
20260507015842 80 89 7.8 10.4 0.00 0.02 0.02 85 1011.1
20260507015340 81 78 9.6 13.0 0.00 0.01 0.01 84 1011.1
20260507014837 82 93 11.3 18.2 0.00 0.00 0.00 81 1011.1
20260507014333 85 85 17.4 23.5 0.00 0.00 0.00 79 1011.1
20260507013830 84 88 8.7 11.3 0.00 0.00 0.00 80 1011.1
20260507013327 84 90 10.4 13.9 0.00 0.00 0.00 81 1011.1
20260507012824 85 70 13.0 15.6 0.00 0.00 0.00 77 1011.1
20260507012320 86 85 10.4 13.0 0.00 0.00 0.00 75 1011.1
20260507011817 85 102 10.4 15.6 0.00 0.00 0.00 75 1011.1
20260507011314 86 72 13.0 15.6 0.00 0.00 0.00 75 1011.1
20260507010814 85 86 14.8 19.1 0.00 0.00 0.00 74 1011.1
20260507010310 86 77 13.0 16.5 0.00 0.00 0.00 73 1011.1
20260507005807 86 67 12.2 16.5 0.00 0.00 0.00 75 1011.5
20260507005305 86 67 13.0 16.5 0.00 0.00 0.00 74 1011.5
20260507004800 86 72 11.3 13.0 0.00 0.00 0.00 73 1011.5
20260507004258 86 79 11.3 14.8 0.00 0.00 0.00 74 1011.5
20260507003754 86 65 11.3 15.6 0.00 0.00 0.00 73 1011.5
20260507003249 87 91 14.8 19.1 0.00 0.00 0.00 72 1011.8
20260507002745 86 77 7.8 10.4 0.00 0.00 0.00 75 1011.5
20260507002242 86 61 13.0 16.5 0.00 0.00 0.00 74 1011.5
20260507001739 86 88 11.3 17.4 0.00 0.00 0.00 73 1011.8
20260507001236 86 89 10.4 14.8 0.00 0.00 0.00 74 1011.8
20260507000732 86 64 10.4 14.8 0.00 0.00 0.00 73 1011.8
20260507000228 86 88 11.3 15.6 0.00 0.00 0.00 73 1011.8
20260506235725 86 83 13.0 18.2 0.00 0.00 0.00 72 1011.8
20260506235220 86 74 13.0 15.6 0.00 0.00 0.00 73 1011.8
20260506234718 86 56 14.8 16.5 0.00 0.00 0.00 73 1011.8
20260506234215 86 76 10.4 14.8 0.00 0.00 0.00 73 1011.8
20260506233712 86 68 11.3 16.5 0.00 0.00 0.00 74 1011.8
20260506233209 85 53 11.3 13.9 0.00 0.00 0.00 76 1011.8
20260506232706 85 95 13.0 18.2 0.00 0.00 0.00 76 1011.8
20260506232200 85 67 12.2 15.6 0.00 0.00 0.00 78 1011.8
20260506231658 84 76 13.0 15.6 0.00 0.00 0.00 79 1011.8
20260506231156 84 76 10.4 13.0 0.00 0.00 0.00 79 1011.8
20260506230652 85 62 10.4 13.0 0.00 0.00 0.00 78 1011.8
20260506230149 85 66 11.3 13.9 0.00 0.00 0.00 79 1011.8
20260506225646 84 68 11.3 13.9 0.00 0.00 0.00 79 1011.5
20260506225143 84 68 12.2 14.8 0.00 0.00 0.00 79 1011.5
20260506224639 84 85 10.4 14.8 0.00 0.00 0.00 79 1011.5
20260506224136 84 74 7.8 11.3 0.00 0.00 0.00 80 1011.5
20260506223632 84 57 7.8 11.3 0.00 0.00 0.00 81 1011.5
20260506223128 84 65 8.7 12.2 0.00 0.00 0.00 80 1011.5
20260506222625 84 69 7.0 9.6 0.00 0.00 0.00 80 1011.5
20260506222122 84 85 7.8 11.3 0.00 0.00 0.00 81 1011.5
20260506221619 84 66 7.8 11.3 0.00 0.00 0.00 81 1011.5
20260506221117 83 63 10.4 12.2 0.00 0.00 0.00 82 1011.5
20260506220614 83 67 7.8 11.3 0.00 0.00 0.00 83 1011.5
20260506220109 83 57 7.8 8.7 0.00 0.00 0.00 83 1011.5
20260506215606 83 71 5.2 7.8 0.00 0.00 0.00 83 1011.5
20260506215101 82 83 5.2 7.0 0.00 0.00 0.00 84 1011.5
20260506214559 82 65 5.2 5.2 0.00 0.00 0.00 84 1011.5
20260506214056 82 59 5.2 7.0 0.00 0.00 0.00 84 1011.5
20260506213554 82 60 5.2 7.0 0.00 0.00 0.00 84 1011.1
20260506213051 82 54 5.2 7.0 0.00 0.00 0.00 84 1011.1
20260506212547 81 54 4.3 6.1 0.00 0.00 0.00 84 1011.5
20260506212042 81 57 5.2 7.0 0.00 0.00 0.00 84 1011.5
20260506211538 81 53 5.2 7.0 0.00 0.00 0.00 84 1011.5
20260506211036 81 49 5.2 6.1 0.00 0.00 0.00 84 1011.5
20260506210532 80 44 3.5 4.3 0.00 0.00 0.00 85 1011.5
20260506210029 80 47 6.1 8.7 0.00 0.00 0.00 85 1011.5
20260506205526 80 51 6.1 7.8 0.00 0.00 0.00 86 1011.5
20260506205021 80 60 6.1 7.0 0.00 0.00 0.00 87 1011.1
20260506204519 80 60 6.1 7.8 0.00 0.00 0.00 87 1011.1
20260506204016 80 60 5.2 6.1 0.00 0.00 0.00 87 1011.1
20260506203514 79 51 4.3 5.2 0.00 0.00 0.00 87 1011.1
20260506203010 79 50 3.5 4.3 0.00 0.00 0.00 88 1011.1
20260506202508 79 50 3.5 3.5 0.00 0.00 0.00 88 1011.1
20260506202004 79 50 2.6 3.5 0.00 0.00 0.00 88 1011.1
20260506201502 79 50 2.6 3.5 0.00 0.00 0.00 88 1011.1
20260506200958 80 50 2.6 3.5 0.00 0.00 0.00 88 1011.1
20260506200454 80 50 1.7 2.6 0.00 0.00 0.00 88 1011.1
20260506195951 80 50 3.5 3.5 0.00 0.00 0.00 87 1011.1
20260506195448 80 59 3.5 3.5 0.00 0.00 0.00 87 1011.1
20260506194944 80 59 4.3 5.2 0.00 0.00 0.00 87 1010.8
20260506194442 80 49 3.5 5.2 0.00 0.00 0.00 87 1010.8
20260506193938 80 49 3.5 4.3 0.00 0.00 0.00 87 1011.1
20260506193436 79 49 2.6 3.5 0.00 0.00 0.00 87 1010.8
20260506192932 79 53 4.3 4.3 0.00 0.00 0.00 87 1010.8
20260506192429 80 56 2.6 3.5 0.00 0.00 0.00 87 1010.8
20260506191926 80 60 4.3 5.2 0.00 0.00 0.00 87 1010.8
20260506191422 80 65 5.2 7.0 0.00 0.00 0.00 87 1010.8
20260506190919 80 58 5.2 7.0 0.00 0.00 0.00 88 1010.8
20260506190416 80 61 7.8 10.4 0.00 0.00 0.00 87 1010.8
20260506185913 80 47 7.0 8.7 0.00 0.00 0.00 87 1010.8
20260506185410 80 51 3.5 5.2 0.00 0.00 0.00 87 1010.8
20260506184907 80 50 3.5 4.3 0.00 0.00 0.00 87 1010.5
20260506184404 80 46 4.3 5.2 0.00 0.00 0.00 87 1010.5
20260506183901 80 54 2.6 3.5 0.00 0.00 0.00 87 1010.5
20260506183356 80 56 4.3 5.2 0.00 0.00 0.00 86 1010.5
20260506182854 80 54 3.5 4.3 0.00 0.00 0.00 86 1010.8
20260506182351 80 62 4.3 5.2 0.00 0.00 0.00 86 1010.8
20260506181848 80 52 3.5 4.3 0.00 0.00 0.00 87 1010.8
20260506181346 80 50 2.6 3.5 0.00 0.00 0.00 87 1010.8
20260506180843 80 50 3.5 3.5 0.00 0.00 0.00 87 1010.8
20260506180339 80 50 1.7 2.6 0.00 0.00 0.00 87 1010.8
20260506175835 80 50 2.6 3.5 0.00 0.00 0.00 87 1010.8
20260506175332 80 50 3.5 4.3 0.00 0.00 0.00 87 1010.5
20260506174829 80 50 3.5 4.3 0.00 0.00 0.00 87 1010.5
20260506174327 80 57 3.5 4.3 0.00 0.00 0.00 87 1010.8
20260506173824 80 60 3.5 4.3 0.00 0.00 0.00 87 1010.8
20260506173321 80 69 3.5 4.3 0.00 0.00 0.00 87 1010.8
20260506172818 80 50 3.5 4.3 0.00 0.00 0.00 87 1010.8
20260506172315 80 50 3.5 4.3 0.00 0.00 0.00 87 1010.8
20260506171812 80 50 2.6 3.5 0.00 0.00 0.00 88 1010.5
20260506171309 80 89 1.7 2.6 0.00 0.00 0.00 88 1010.5
20260506170807 80 54 2.6 2.6 0.00 0.00 0.00 88 1010.5
20260506170303 80 54 2.6 3.5 0.00 0.00 0.00 87 1010.8
20260506165802 80 54 1.7 2.6 0.00 0.00 0.00 87 1010.8
20260506165259 80 54 0.9 2.6 0.00 0.00 0.00 87 1010.8
20260506164755 80 54 1.7 3.5 0.00 0.00 0.00 87 1010.8
20260506164252 80 54 1.7 2.6 0.00 0.00 0.00 87 1010.8
20260506163749 80 54 2.6 2.6 0.00 0.00 0.00 87 1010.8
20260506163244 80 54 2.6 2.6 0.00 0.00 0.00 87 1011.1
20260506162740 80 54 2.6 3.5 0.00 0.00 0.00 87 1011.1
20260506162238 80 54 3.5 3.5 0.00 0.00 0.00 87 1011.1
20260506161735 80 63 3.5 3.5 0.00 0.00 0.00 87 1011.1
20260506161232 80 72 4.3 6.1 0.00 0.00 0.00 87 1011.5
20260506153039 80 75 5.2 6.1 0.00 0.00 0.00 87 1011.5
20260506152536 80 75 5.2 6.1 0.00 0.00 0.00 87 1011.5
20260506152034 80 76 5.2 7.0 0.00 0.00 0.00 87 1011.5
20260506151532 80 83 5.2 6.1 0.00 0.00 0.00 87 1011.5
20260506151029 80 75 4.3 5.2 0.00 0.00 0.00 88 1011.5
20260506150525 80 74 4.3 6.1 0.00 0.00 0.00 88 1011.5
20260506150022 80 55 4.3 6.1 0.00 0.00 0.00 88 1011.5
20260506145519 80 54 2.6 3.5 0.00 0.00 0.00 88 1011.5
20260506145016 80 72 2.6 3.5 0.00 0.00 0.00 88 1011.8
20260506144513 80 81 2.6 3.5 0.00 0.00 0.00 87 1011.8
20260506144011 80 63 3.5 4.3 0.00 0.00 0.00 87 1011.8
20260506143508 80 61 3.5 5.2 0.00 0.00 0.00 87 1012.2
20260506143007 80 73 5.2 6.1 0.00 0.00 0.00 87 1012.2
20260506142504 80 63 3.5 3.5 0.00 0.00 0.00 87 1012.2
20260506142001 80 45 0.0 2.6 0.00 0.00 0.00 87 1012.2
20260506141459 80 45 2.6 2.6 0.00 0.00 0.00 87 1012.2
20260506140957 80 45 0.9 2.6 0.00 0.00 0.00 87 1012.2
20260506140454 80 45 3.5 3.5 0.00 0.00 0.00 87 1012.5
20260506135951 80 45 2.6 3.5 0.00 0.18 0.18 87 1012.5
20260506135448 80 56 2.6 4.3 0.00 0.18 0.18 87 1012.5
20260506134944 80 56 2.6 2.6 0.00 0.18 0.18 87 1012.5
20260506134440 80 56 2.6 3.5 0.00 0.18 0.18 86 1012.5
20260506133937 81 56 3.5 3.5 0.00 0.18 0.18 86 1012.5
20260506133434 81 63 3.5 3.5 0.00 0.18 0.18 86 1012.5
20260506132931 81 60 4.3 6.1 0.00 0.18 0.18 86 1012.5
20260506132428 81 60 3.5 3.5 0.00 0.18 0.18 86 1012.5
20260506131925 81 60 4.3 5.2 0.00 0.18 0.18 86 1012.5
20260506131422 81 60 4.3 5.2 0.00 0.18 0.18 86 1012.8
20260506130919 81 59 3.5 3.5 0.00 0.18 0.18 86 1012.8
20260506130415 81 64 3.5 4.3 0.00 0.18 0.18 86 1012.8
20260506125914 81 76 2.6 3.5 0.00 0.18 0.18 86 1012.8